FW9748 Weather Reports


time (UTC)temp
C
wind
direction
speed
KPH
gust
KPH
rain 1hr
cm
rain 24hr
cm
rain mn
cm
humidity
%
barometer
mb
20260510220306 20 346 4.8 4.8 0.00 0.64 0.00 33 1017.6
20260510215806 20 351 3.2 9.7 0.00 0.64 0.00 35 1017.6
20260510215306 20 335 4.8 9.7 0.00 0.64 0.00 38 1017.9
20260510214806 20 358 3.2 8.0 0.00 0.64 0.00 37 1017.6
20260510214306 20 358 3.2 4.8 0.00 0.64 0.00 39 1017.9
20260510213806 20 112 3.2 4.8 0.00 0.64 0.00 36 1017.6
20260510213305 20 343 3.2 4.8 0.00 0.64 0.00 38 1017.9
20260510212806 20 342 4.8 4.8 0.00 0.64 0.00 37 1017.6
20260510211805 20 308 4.8 11.3 0.00 0.64 0.00 37 1017.9
20260510211305 20 228 3.2 4.8 0.00 0.64 0.00 38 1017.6
20260510210806 20 333 3.2 3.2 0.00 0.64 0.00 37 1017.9
20260510210306 20 358 3.2 8.0 0.00 0.64 0.00 38 1018.3
20260510205805 20 0 3.2 4.8 0.00 0.64 0.00 36 1017.9
20260510205307 20 339 4.8 4.8 0.00 0.64 0.00 37 1017.9
20260510204806 20 348 4.8 4.8 0.00 0.64 0.00 37 1017.9
20260510204305 20 20 1.6 3.2 0.00 0.64 0.00 40 1017.9
20260510203806 20 12 3.2 3.2 0.00 0.64 0.00 37 1017.9
20260510202806 21 233 3.2 3.2 0.00 0.64 0.00 36 1017.9
20260510202306 21 60 0.0 3.2 0.00 0.64 0.00 34 1017.6
20260510201806 21 144 3.2 9.7 0.00 0.64 0.00 34 1017.6
20260510201306 20 345 3.2 8.0 0.00 0.64 0.00 37 1017.3
20260510200805 21 36 1.6 4.8 0.00 0.64 0.00 36 1017.9
20260510200306 20 268 3.2 3.2 0.00 0.64 0.00 37 1017.6
20260510195805 21 8 8.0 11.3 0.00 0.64 0.00 37 1017.6
20260510195306 21 12 3.2 9.7 0.00 0.64 0.00 36 1017.9
20260510194806 22 343 3.2 3.2 0.00 0.64 0.00 35 1017.6
20260510194306 21 78 3.2 3.2 0.00 0.64 0.00 34 1017.6
20260510193806 21 44 3.2 3.2 0.00 0.64 0.00 33 1017.6
20260510193305 20 350 4.8 9.7 0.00 0.64 0.00 38 1017.9
20260510192805 20 38 4.8 4.8 0.00 0.64 0.00 38 1017.9
20260510192307 21 130 3.2 4.8 0.00 0.64 0.00 37 1018.3
20260510191806 21 87 4.8 8.0 0.00 0.64 0.00 36 1018.3
20260510191306 21 91 3.2 3.2 0.00 0.64 0.00 38 1018.3
20260510190805 20 100 3.2 4.8 0.00 0.64 0.00 38 1017.9
20260510190306 19 52 4.8 4.8 0.00 0.64 0.00 38 1018.3
20260510185806 19 59 3.2 3.2 0.00 0.64 0.00 40 1017.9
20260510184805 19 10 1.6 3.2 0.00 0.64 0.00 39 1017.9
20260510184306 19 78 3.2 3.2 0.00 0.64 0.00 43 1017.9
20260510183305 20 106 3.2 4.8 0.00 0.64 0.00 38 1018.3
20260510182806 20 113 3.2 3.2 0.00 0.64 0.00 40 1017.9
20260510181805 19 332 4.8 8.0 0.00 0.64 0.00 41 1017.9
20260510181305 20 113 3.2 8.0 0.00 0.64 0.00 40 1017.6
20260510180806 19 111 3.2 11.3 0.00 0.64 0.00 42 1017.6
20260510180305 19 24 8.0 9.7 0.00 0.64 0.00 42 1017.9
20260510175805 19 98 3.2 8.0 0.00 0.64 0.00 40 1017.9
20260510175306 19 16 6.4 9.7 0.00 0.64 0.00 42 1017.9
20260510174805 18 139 3.2 9.7 0.00 0.64 0.00 44 1018.3
20260510174305 18 85 3.2 4.8 0.00 0.64 0.00 46 1018.3
20260510173806 18 65 3.2 4.8 0.00 0.64 0.00 45 1017.9
20260510173306 18 57 3.2 9.7 0.00 0.64 0.00 44 1018.3
20260510172307 17 327 3.2 11.3 0.00 0.64 0.00 43 1018.6
20260510171805 18 0 4.8 11.3 0.00 0.64 0.00 42 1018.6
20260510170805 18 2 4.8 8.0 0.00 0.64 0.00 41 1018.6
20260510165806 18 142 3.2 9.7 0.00 0.64 0.00 46 1018.6
20260510165307 18 86 3.2 4.8 0.00 0.64 0.00 46 1018.6
20260510164305 17 4 3.2 3.2 0.00 0.64 0.00 50 1018.6
20260510163805 17 41 3.2 3.2 0.00 0.64 0.00 51 1018.6
20260510163306 17 67 3.2 3.2 0.00 0.64 0.00 52 1018.6
20260510162805 17 38 3.2 3.2 0.00 0.64 0.00 54 1018.6
20260510161806 16 330 4.8 9.7 0.00 0.64 0.00 54 1018.6
20260510161306 17 49 1.6 3.2 0.00 0.64 0.00 54 1019.0
20260510160805 16 351 3.2 3.2 0.00 0.64 0.00 56 1019.0
20260510160305 17 96 3.2 3.2 0.00 0.64 0.00 54 1019.0
20260510155805 16 1 4.8 9.7 0.00 0.64 0.00 55 1019.0
20260510155306 16 21 3.2 9.7 0.00 0.64 0.00 55 1019.0
20260510154806 16 76 3.2 9.7 0.00 0.64 0.00 59 1019.0
20260510154305 16 149 3.2 3.2 0.00 0.64 0.00 60 1018.6
20260510153805 16 6 1.6 4.8 0.00 0.64 0.00 63 1019.0
20260510153305 15 357 3.2 3.2 0.00 0.64 0.00 62 1018.6
20260510152307 15 95 3.2 8.0 0.00 0.64 0.00 62 1018.3
20260510151805 15 50 3.2 4.8 0.00 0.64 0.00 64 1018.3
20260510151305 15 17 1.6 3.2 0.00 0.64 0.00 61 1018.6
20260510150305 15 9 3.2 4.8 0.00 0.64 0.00 62 1018.3
20260510145805 15 59 1.6 3.2 0.00 0.64 0.00 63 1018.3
20260510145306 15 354 1.6 1.6 0.00 0.64 0.00 65 1018.3
20260510144805 15 354 1.6 3.2 0.00 0.64 0.00 64 1018.3
20260510144305 15 8 3.2 3.2 0.00 0.64 0.00 62 1018.3
20260510143805 15 312 3.2 3.2 0.00 0.64 0.00 63 1018.3
20260510143305 14 353 1.6 3.2 0.00 0.64 0.00 62 1018.3
20260510142805 14 91 3.2 3.2 0.00 0.64 0.00 61 1017.9
20260510141805 15 36 3.2 3.2 0.00 0.64 0.00 63 1017.9
20260510141305 15 130 1.6 3.2 0.00 0.64 0.00 63 1017.6
20260510140805 15 9 1.6 3.2 0.00 0.64 0.00 63 1017.6
20260510140305 14 35 3.2 4.8 0.00 0.64 0.00 61 1017.6
20260510135805 13 82 3.2 3.2 0.00 0.64 0.00 64 1017.6
20260510135306 14 54 3.2 9.7 0.00 0.64 0.00 64 1017.3
20260510134305 15 327 4.8 9.7 0.00 0.64 0.00 68 1017.6
20260510133805 14 17 3.2 3.2 0.00 0.64 0.00 66 1017.3
20260510133306 14 34 3.2 4.8 0.00 0.64 0.00 68 1017.3
20260510132805 13 29 6.4 9.7 0.00 0.64 0.00 70 1017.6
20260510131805 13 124 1.6 1.6 0.00 0.64 0.00 74 1017.6
20260510131305 13 6 1.6 3.2 0.00 0.64 0.00 74 1017.3
20260510130805 13 20 1.6 3.2 0.00 0.64 0.00 82 1017.3
20260510130305 13 20 1.6 3.2 0.00 0.64 0.00 80 1017.3
20260510125805 12 20 1.6 3.2 0.00 0.64 0.00 80 1017.3
20260510125307 12 20 3.2 3.2 0.00 0.64 0.00 82 1017.3
20260510124804 12 13 1.6 1.6 0.00 0.64 0.00 83 1016.9
20260510123805 12 349 1.6 3.2 0.00 0.64 0.00 82 1016.6
20260510123305 12 15 3.2 3.2 0.00 0.64 0.00 80 1016.6
20260510122805 12 1 3.2 3.2 0.00 0.64 0.00 83 1016.3
20260510122306 12 43 3.2 3.2 0.00 0.64 0.00 84 1016.6
20260510121805 11 0 1.6 3.2 0.00 0.64 0.00 87 1016.6
20260510121305 11 0 0.0 1.6 0.00 0.64 0.00 89 1016.3
20260510120805 11 0 0.0 0.0 0.00 0.64 0.00 88 1016.6
20260510115805 11 0 0.0 3.2 0.00 0.64 0.00 89 1016.3
20260510115306 11 0 1.6 3.2 0.00 0.64 0.00 88 1016.3
20260510114305 11 4 4.8 8.0 0.00 0.64 0.00 88 1015.9
20260510113805 11 6 3.2 3.2 0.00 0.64 0.00 90 1015.9
20260510113305 11 6 3.2 4.8 0.00 0.64 0.00 90 1015.6
20260510112306 11 6 3.2 3.2 0.00 0.64 0.00 90 1015.6
20260510111304 11 6 3.2 3.2 0.00 0.64 0.00 91 1015.2
20260510110305 11 6 3.2 4.8 0.00 0.64 0.00 91 1015.2
20260510105805 11 6 3.2 4.8 0.00 0.64 0.00 91 1014.9
20260510105306 11 6 3.2 3.2 0.00 0.64 0.00 92 1014.9
20260510104805 11 6 3.2 4.8 0.00 0.64 0.00 91 1014.6
20260510104305 11 6 1.6 3.2 0.00 0.64 0.00 92 1014.6
20260510102805 11 6 1.6 3.2 0.00 0.64 0.00 94 1014.6
20260510102306 11 6 3.2 3.2 0.00 0.64 0.00 94 1014.6
20260510101805 11 6 3.2 3.2 0.00 0.64 0.00 94 1014.2
20260510101305 11 6 1.6 3.2 0.00 0.64 0.00 93 1014.2
20260510100805 11 6 1.6 4.8 0.00 0.64 0.00 94 1013.9
20260510100305 12 6 3.2 3.2 0.00 0.64 0.00 94 1013.9
20260510095805 12 6 1.6 4.8 0.00 0.64 0.00 94 1013.9
20260510095306 12 6 3.2 4.8 0.00 0.64 0.00 95 1013.9
20260510094804 12 6 3.2 3.2 0.00 0.64 0.00 95 1013.9
20260510094305 12 6 3.2 4.8 0.00 0.64 0.00 95 1013.9
20260510093805 12 6 4.8 4.8 0.00 0.64 0.00 96 1013.9
20260510093304 12 6 3.2 4.8 0.00 0.64 0.00 96 1013.9
20260510092804 12 6 3.2 4.8 0.00 0.64 0.00 96 1013.9
20260510092306 12 6 3.2 3.2 0.00 0.64 0.00 97 1013.9
20260510091805 13 6 3.2 4.8 0.00 0.64 0.00 97 1013.9
20260510091304 13 6 3.2 3.2 0.00 0.64 0.00 97 1013.9
20260510085804 13 6 0.0 0.0 0.00 0.64 0.00 97 1013.2
20260510085306 12 6 1.6 1.6 0.00 0.64 0.00 97 1013.2
20260510084804 13 6 0.0 0.0 0.00 0.64 0.00 97 1012.9
20260510084304 13 5 1.6 1.6 0.00 0.64 0.00 96 1012.9
20260510083305 13 5 0.0 0.0 0.00 0.64 0.00 96 1012.9
20260510082805 13 5 0.0 0.0 0.00 0.64 0.00 96 1012.5
20260510082306 13 5 0.0 1.6 0.00 0.64 0.00 96 1012.5
20260510081804 13 5 0.0 0.0 0.00 0.64 0.00 96 1012.5
20260510080805 13 4 1.6 1.6 0.00 0.64 0.00 96 1012.2
20260510080304 13 4 1.6 3.2 0.00 0.64 0.00 96 1012.2
20260510075804 13 4 1.6 3.2 0.00 0.64 0.00 96 1012.2
20260510075306 13 4 3.2 3.2 0.00 0.64 0.00 96 1012.2
20260510074804 13 5 3.2 4.8 0.00 0.64 0.00 96 1011.9
20260510073804 14 11 1.6 1.6 0.00 0.64 0.00 97 1011.9
20260510073304 14 11 1.6 1.6 0.00 0.64 0.00 97 1012.2
20260510072804 14 11 1.6 1.6 0.00 0.64 0.00 96 1012.2
20260510071805 14 11 0.0 0.0 0.00 0.64 0.00 96 1011.9
20260510071304 14 11 1.6 1.6 0.00 0.64 0.00 96 1011.9
20260510070804 14 11 1.6 3.2 0.00 0.64 0.00 96 1011.9
20260510070304 14 11 1.6 3.2 0.00 0.64 0.00 96 1011.9
20260510065804 14 11 1.6 1.6 0.00 0.64 0.00 96 1011.9
20260510065306 14 11 0.0 0.0 0.00 0.64 0.00 96 1012.2
20260510064804 14 11 0.0 3.2 0.00 0.64 0.00 96 1012.2
20260510063805 14 11 3.2 3.2 0.00 0.64 0.00 96 1011.9
20260510063304 14 11 1.6 3.2 0.00 0.64 0.00 96 1011.5
20260510062804 14 12 3.2 3.2 0.00 0.64 0.00 96 1011.9
20260510062307 14 15 3.2 3.2 0.00 0.64 0.00 96 1011.9
20260510061804 14 18 1.6 1.6 0.00 0.64 0.00 96 1011.9
20260510061304 14 18 0.0 0.0 0.00 0.64 0.00 96 1011.5
20260510055804 15 18 1.6 3.2 0.00 0.64 0.00 96 1011.9
20260510055306 15 342 1.6 3.2 0.03 0.64 0.00 96 1011.5
20260510054805 15 22 1.6 3.2 0.03 0.64 0.00 96 1011.9
20260510054311 15 28 3.2 8.0 0.03 0.64 0.00 96 1011.5
20260510053804 15 85 3.2 8.0 0.03 0.64 0.00 96 1011.5
20260510053304 15 80 1.6 1.6 0.03 0.64 0.00 96 1011.5
20260510052306 15 36 3.2 3.2 0.03 0.64 0.00 96 1011.2
20260510051804 15 24 4.8 8.0 0.05 0.64 0.00 96 1010.8
20260510051304 15 50 3.2 3.2 0.05 0.64 0.00 96 1011.2
20260510050915 15 0 3.2 3.2 0.08 0.64 0.00 96 1011.2
20260510050304 15 43 1.6 3.2 0.10 0.64 0.00 96 1011.5
20260510045804 15 58 3.2 3.2 0.10 0.64 0.64 96 1011.2
20260510045306 15 18 3.2 4.8 0.13 0.61 0.61 96 1011.2
20260510044805 15 303 1.6 3.2 0.15 0.61 0.61 96 1010.8
20260510044304 15 71 3.2 3.2 0.18 0.61 0.61 96 1010.5
20260510043804 15 68 1.6 1.6 0.18 0.61 0.61 96 1010.8
20260510043305 15 102 1.6 3.2 0.20 0.61 0.61 95 1010.5
20260510042805 15 102 3.2 3.2 0.23 0.61 0.61 95 1010.5
20260510042306 15 119 3.2 3.2 0.25 0.61 0.61 95 1010.5
20260510041804 15 92 3.2 8.0 0.28 0.61 0.61 95 1010.8
20260510041304 15 131 3.2 3.2 0.28 0.58 0.58 95 1011.2
20260510040804 15 128 3.2 14.5 0.30 0.56 0.56 95 1011.2
20260510040304 15 71 4.8 14.5 0.36 0.53 0.53 95 1011.2
20260510035306 15 117 6.4 8.0 0.48 0.48 0.48 94 1010.8
20260510034805 15 83 4.8 9.7 0.46 0.46 0.46 95 1010.8
20260510034304 15 92 4.8 8.0 0.43 0.43 0.43 94 1010.8
20260510033804 15 90 3.2 3.2 0.43 0.43 0.43 94 1011.5
20260510033304 16 4 4.8 8.0 0.41 0.41 0.41 94 1011.5
20260510032804 16 19 3.2 9.7 0.38 0.38 0.38 94 1011.5
20260510032306 16 355 8.0 14.5 0.36 0.36 0.36 94 1011.5
20260510031805 16 56 8.0 12.9 0.33 0.33 0.33 94 1011.5
20260510031304 16 5 9.7 12.9 0.30 0.30 0.30 93 1011.9
20260510030804 16 356 6.4 11.3 0.25 0.28 0.25 92 1011.9
20260510030304 16 16 11.3 19.3 0.18 0.20 0.18 90 1011.5
20260510025804 17 352 9.7 16.1 0.00 0.05 0.00 84 1011.2
20260510025306 18 358 11.3 24.1 0.00 0.08 0.00 75 1010.5
20260510024804 20 25 4.8 4.8 0.00 0.10 0.00 68 1009.1
20260510024304 21 19 0.0 1.6 0.00 0.13 0.00 58 1008.5
20260510023804 21 19 1.6 1.6 0.00 0.18 0.00 58 1008.5
20260510023304 22 19 1.6 3.2 0.00 0.20 0.00 57 1008.5
20260510022804 22 19 3.2 3.2 0.00 0.23 0.00 55 1008.1
20260510022306 22 18 1.6 1.6 0.00 0.30 0.00 55 1008.1
20260510021804 22 18 3.2 3.2 0.00 0.36 0.00 53 1008.1
20260510020804 21 11 1.6 1.6 0.00 0.46 0.00 53 1007.8
20260510015804 22 11 1.6 1.6 0.00 0.56 0.00 51 1007.8
20260510015306 23 11 1.6 1.6 0.00 0.61 0.00 49 1007.5
20260510014803 22 11 3.2 3.2 0.00 0.64 0.00 49 1007.1
20260510014304 22 11 0.0 0.0 0.00 0.71 0.00 52 1007.1
20260510013805 22 11 0.0 0.0 0.00 0.79 0.00 52 1006.8
20260510013304 22 11 0.0 0.0 0.00 0.84 0.00 53 1006.8
20260510012804 22 11 1.6 3.2 0.00 0.89 0.00 54 1006.8
20260510012306 22 11 1.6 1.6 0.00 0.91 0.00 50 1006.8
20260510011804 23 11 0.0 1.6 0.00 0.91 0.00 48 1007.1
20260510011304 23 11 1.6 1.6 0.00 0.91 0.00 48 1006.8
20260510010804 23 11 0.0 0.0 0.00 0.91 0.00 48 1006.8
20260510010304 23 11 0.0 0.0 0.00 0.91 0.00 49 1006.8
20260510005804 23 11 0.0 0.0 0.00 0.91 0.00 50 1006.8
20260510005306 23 11 0.0 0.0 0.00 0.91 0.00 52 1006.8
20260510004304 23 11 0.0 0.0 0.00 0.91 0.00 50 1006.8
20260510003304 24 11 0.0 0.0 0.00 0.94 0.00 48 1006.4
20260510002804 25 11 0.0 0.0 0.00 0.97 0.00 48 1006.4
20260510002307 25 11 0.0 1.6 0.00 0.97 0.00 45 1006.4
20260510001303 25 11 0.0 0.0 0.00 0.97 0.00 45 1006.1
20260510000804 25 11 0.0 0.0 0.00 0.97 0.00 44 1006.4
20260510000304 25 11 0.0 1.6 0.00 0.99 0.00 44 1006.4
20260509235804 25 11 1.6 3.2 0.00 0.99 0.00 44 1006.4
20260509235306 25 11 1.6 1.6 0.00 0.99 0.00 43 1006.1
20260509234804 25 11 0.0 1.6 0.00 0.99 0.00 44 1006.1
20260509234303 25 11 1.6 1.6 0.00 0.99 0.00 44 1006.1
20260509233304 25 11 1.6 1.6 0.00 0.99 0.00 42 1006.4
20260509232804 25 11 1.6 1.6 0.00 0.99 0.00 42 1006.4
20260509231803 25 11 3.2 3.2 0.00 0.99 0.00 44 1006.1
20260509231304 26 11 1.6 1.6 0.00 0.99 0.00 42 1006.1
20260509230804 26 11 1.6 3.2 0.00 0.99 0.00 41 1006.1
20260509230306 26 11 1.6 3.2 0.00 0.99 0.00 41 1006.4
20260509225306 26 11 3.2 3.2 0.00 0.99 0.00 41 1006.1
20260509224806 26 11 3.2 4.8 0.00 0.99 0.00 42 1006.1
20260509223806 26 342 1.6 3.2 0.00 0.99 0.00 42 1006.1
20260509222806 26 53 4.8 4.8 0.00 0.99 0.00 40 1006.1
20260509222307 26 42 1.6 3.2 0.00 0.99 0.00 40 1006.1
20260509221305 26 12 3.2 3.2 0.00 0.99 0.00 40 1006.1
20260509220805 26 345 3.2 4.8 0.00 0.99 0.00 39 1006.1